GW1374 Weather Reports


Display with metric or nautical units.
time (UTC)temp
F
wind
direction
speed
MPH
gust
MPH
rain 1hr
in
rain 24hr
in
rain mn
in
humidity
%
barometer
mb
20260904060053 67 9 0.0 2.0 0.00 0.36 0.13 96 1012.9
20260904054548 67 26 0.0 2.0 0.00 0.37 0.13 96 1013.0
20260904053102 67 57 1.0 2.0 0.02 0.37 0.13 96 1013.1
20260904051601 67 44 1.0 2.0 0.07 0.37 0.13 96 1013.2
20260904050052 68 0 0.0 3.0 0.12 0.37 0.13 95 1013.4
20260904044601 68 334 0.0 2.0 0.31 0.49 0.13 95 1013.5
20260904043102 69 9 0.0 2.0 0.34 0.47 0.11 95 1013.7
20260904041546 69 9 1.0 2.0 0.28 0.41 0.05 96 1014.0
20260904040052 69 0 0.0 3.0 0.24 0.37 0.01 95 1013.7
20260904034554 70 265 1.0 4.0 0.05 0.41 0.18 95 1013.6
20260904033053 70 196 0.0 1.0 0.00 0.36 0.13 93 1013.3
20260904031553 70 93 0.0 2.0 0.00 0.36 0.13 93 1013.2
20260904030107 70 0 0.0 1.0 0.00 0.36 0.13 93 1013.3
20260904024556 70 0 0.0 1.0 0.00 0.52 0.13 93 1013.4
20260904023054 70 51 0.0 1.0 0.00 0.52 0.13 93 1013.3
20260904021550 70 0 0.0 1.0 0.00 0.52 0.13 93 1013.6
20260904020058 70 0 0.0 2.0 0.00 0.52 0.13 93 1013.8
20260904014609 70 67 0.0 2.0 0.00 1.22 0.13 93 1013.7
20260904013051 71 93 0.0 2.0 0.00 1.22 0.13 92 1013.8
20260904011559 71 0 0.0 2.0 0.00 1.22 0.13 93 1014.0
20260904010053 71 51 1.0 3.0 0.00 1.22 0.13 91 1014.1
20260904004558 72 0 0.0 2.0 0.00 1.23 0.13 90 1013.9
20260904003052 72 0 0.0 2.0 0.00 1.23 0.13 90 1013.6
20260904001553 72 137 1.0 2.0 0.00 1.23 0.13 90 1013.5
20260904000057 73 178 0.0 1.0 0.00 1.23 0.13 88 1013.4
20260903234553 73 0 0.0 2.0 0.00 1.23 0.13 88 1013.3
20260903233053 73 298 1.0 2.0 0.00 1.23 0.13 87 1013.6
20260903231600 74 0 0.0 2.0 0.00 1.23 0.13 87 1013.6
20260903230054 74 316 1.0 2.0 0.00 1.23 0.13 86 1013.5
20260903224551 75 291 1.0 2.0 0.00 1.23 0.13 86 1013.4
20260903223049 75 319 1.0 2.0 0.00 1.23 0.13 85 1013.3
20260903221558 75 51 0.0 1.0 0.00 1.23 0.13 84 1013.1
20260903220117 76 0 0.0 2.0 0.00 1.23 0.13 83 1012.9
20260903214601 76 0 0.0 3.0 0.00 1.23 0.13 83 1012.9
20260903213056 76 0 0.0 3.0 0.00 1.23 0.13 84 1013.2
20260903211559 76 325 0.0 5.0 0.00 1.23 0.13 84 1013.1
20260903210114 77 0 0.0 5.0 0.00 1.23 0.13 82 1013.3
20260903204556 77 0 0.0 1.0 0.00 1.23 0.13 84 1013.3
20260903203053 77 0 0.0 3.0 0.00 1.23 0.13 82 1013.6
20260903201554 77 0 0.0 2.0 0.00 1.23 0.13 82 1013.7
20260903200059 77 247 1.0 4.0 0.00 1.23 0.13 83 1013.5
20260903194555 77 9 0.0 2.0 0.00 1.23 0.13 82 1013.5
20260903193052 77 293 1.0 3.0 0.00 1.23 0.13 81 1013.5
20260903191602 77 41 0.0 3.0 0.00 1.23 0.13 82 1013.7
20260903190100 76 239 0.0 2.0 0.00 1.23 0.13 83 1014.0
20260903184559 76 162 0.0 3.0 0.00 1.23 0.13 82 1014.1
20260903183057 77 0 0.0 4.0 0.00 1.23 0.13 82 1014.1
20260903181558 76 309 1.0 4.0 0.00 1.23 0.13 81 1014.2
20260903180101 75 275 0.0 3.0 0.00 1.23 0.13 83 1014.3
20260903174554 75 0 0.0 4.0 0.00 1.23 0.13 85 1014.4
20260903173053 75 178 0.0 2.0 0.00 1.23 0.13 84 1014.5
20260903171613 75 221 0.0 8.0 0.00 1.23 0.13 86 1014.6
20260903170054 74 257 1.0 5.0 0.00 1.23 0.13 87 1014.5
20260903164606 73 0 1.0 2.0 0.00 1.23 0.13 89 1014.6
20260903163047 72 247 0.0 4.0 0.00 1.23 0.13 91 1014.7
20260903161557 71 111 0.0 2.0 0.00 1.23 0.13 94 1014.9
20260903154549 69 0 0.0 2.0 0.00 1.32 0.13 96 1015.3
20260903153055 69 273 1.0 2.0 0.00 1.32 0.13 97 1015.4
20260903151553 69 273 1.0 2.0 0.00 1.32 0.13 97 1015.6
20260903150059 68 273 1.0 2.0 0.00 1.32 0.13 98 1015.4
20260903144553 68 273 1.0 2.0 0.00 1.45 0.13 98 1015.4
20260903143111 68 273 1.0 2.0 0.00 1.45 0.13 98 1015.3
20260903141552 68 273 1.0 2.0 0.00 1.45 0.13 98 1015.2
20260903140103 67 273 1.0 2.0 0.00 1.45 0.13 98 1015.2
20260903134556 67 273 1.0 2.0 0.00 1.45 0.13 98 1015.3
20260903133108 67 273 1.0 2.0 0.00 1.45 0.13 98 1015.0
20260903131606 67 273 1.0 2.0 0.00 1.45 0.13 98 1015.2
20260903130103 67 273 1.0 2.0 0.00 1.45 0.13 98 1015.2
20260903124559 66 273 1.0 2.0 0.00 1.45 0.13 98 1015.3
20260903123054 66 273 1.0 2.0 0.00 1.45 0.13 98 1015.4
20260903121552 65 273 1.0 2.0 0.00 1.45 0.13 98 1015.2
20260903120052 65 273 1.0 2.0 0.00 1.45 0.13 98 1014.9
20260903114555 64 273 1.0 2.0 0.00 1.45 0.13 98 1014.9
20260903113053 64 273 1.0 2.0 0.00 1.45 0.13 98 1014.9
20260903111603 64 273 1.0 2.0 0.00 1.45 0.13 98 1014.5
20260903110054 64 273 1.0 2.0 0.00 1.45 0.13 98 1014.5
20260903104554 64 273 1.0 2.0 0.00 1.45 0.13 98 1014.5
20260903103057 64 273 1.0 2.0 0.00 1.45 0.13 98 1014.5
20260903101558 64 273 1.0 2.0 0.00 1.45 0.13 98 1014.6
20260903100054 64 273 1.0 2.0 0.00 1.45 0.13 98 1014.7
20260903094609 64 273 1.0 2.0 0.00 1.45 0.13 98 1014.7
20260903093104 64 273 1.0 2.0 0.00 1.45 0.13 98 1014.6
20260903091553 64 273 1.0 2.0 0.00 1.45 0.13 98 1014.9
20260903090051 64 273 1.0 2.0 0.00 1.45 0.13 98 1014.9
20260903084556 64 273 1.0 2.0 0.00 1.45 0.13 98 1014.7
20260903083055 64 273 1.0 2.0 0.00 1.45 0.13 98 1014.5
20260903081551 64 273 1.0 2.0 0.00 1.45 0.13 98 1015.0
20260903080107 64 273 1.0 2.0 0.00 1.45 0.13 98 1014.8
20260903074554 64 273 1.0 2.0 0.00 1.45 0.13 98 1014.8
20260903073052 64 273 1.0 2.0 0.00 1.45 0.13 98 1014.7
20260903071601 64 273 1.0 2.0 0.00 1.45 0.13 98 1014.9
20260903070053 64 273 1.0 2.0 0.00 1.45 0.13 98 1014.9
20260903064552 64 273 1.0 2.0 0.00 1.45 0.13 98 1015.1
20260903063059 64 273 1.0 2.0 0.01 1.45 0.13 98 1014.5
20260903061605 64 273 1.0 2.0 0.01 1.45 0.13 98 1015.1